2023-007N (55260 NORAD) Tracking and Keplerian Element Data

This shows tracking and keplerian element data for the satellite.

Feedback or suggestion? Click here.




ElementValue
Catalog55260
Name2023-007N
Epoch Orbit1701
Epoch Day126.50595814
Epoch Year2023
RAAN199.854
Inclination97.3573
Eccentricity0.000644
Argument of Perigee268.027
Mean Anonmoly187.8627
Mean Motion15.32207005
Decay Rate0.00020491
L11 55260U 23007N 23126.50595814 .00020491 00000+0 66003-3 0 9994
L22 55260 97.3573 199.8540 0006440 268.0270 187.8627 15.32207005 17012



Live tracking and technical data element details for 2023-007N (NORAD 55260). 2023-007N can be tracked NOW for your location showing map with azimuth and elevation plus other details from your city location.







IsCatalogInMostPopularTable: catalog: 55260, numindb: -1

Insert: records affected: 1


GetName: 55260 2023-007N

Hit Count: inserted at: Sun, 28 May 2023 06:02:05 GMT